Flag for Estonia Weather past 2 weeks in Tartu, Estonia

Now
52 °F

Passing clouds.


Feels Like: 51 °F
Forecast: 33 / 60 °F
Wind: 5 mph from East

Location: Tartu/Ulenurme


UV Index: 3 (Moderate)

Visibility: N/A


Pressure: 30.42 "Hg

Humidity: 19%

Dew point: 10 °F

Location of TartuLocation

Historic Weather in Tartu

°F

Tartu temperature yesterday

Maximum temperature yesterday: 50 °F (at 12:50 AM)
Minimum temperature yesterday: 39 °F (at 11:50 PM)
Average temperature yesterday: 47 °F

Past Weeks' High & Low Weather Summary

 TemperatureHumidityPressure
High70 °F (Apr 21, 3:50 PM)93% (Apr 13, 5:50 PM)30.54 "Hg (Apr 13, 5:50 PM)
Low28 °F (Apr 10, 3:50 AM)19% (Apr 24, 3:50 PM)29.42 "Hg (Apr 14, 8:50 AM)
Average47 °F54%30.04 "Hg
* Reported Apr 9 3:50 PM — Apr 24 3:50 PM, Tartu, Weather by CustomWeather, © 2014

Note: Actual official high and low records may vary slightly from our data, if they occured in-between our weather recording intervals... More about our weather records

Advertising

Historic Weather Conditions — Data for Previous 24 hours

 ConditionsComfort  
Time TempWeatherWind HumidityBarometerVisibility
3:50 PM
Apr 24
52 °FPassing clouds.7 mph19%30.45 "HgN/A
2:50 PM52 °FCool.5 mph20%30.48 "HgN/A
1:50 PM50 °FPassing clouds.6 mph22%30.51 "HgN/A
12:50 PM48 °FSunny.9 mph25%30.51 "Hg10 mi
11:50 AM48 °FSunny.3 mph27%30.54 "Hg10 mi
10:50 AM46 °FCool.9 mph27%30.54 "HgN/A
9:50 AM45 °FQuite cool.9 mph29%30.54 "HgN/A
8:50 AM43 °FQuite cool.10 mph49%30.54 "HgN/A
7:50 AM36 °FChilly.3 mph75%30.54 "HgN/A
6:50 AM32 °FChilly.3 mph75%30.54 "HgN/A
5:50 AM28 °FChilly.2 mph74%30.51 "HgN/A
4:50 AM30 °FChilly.2 mph69%30.51 "HgN/A
3:50 AM34 °FChilly.2 mph65%30.48 "HgN/A
2:50 AM34 °FChilly.5 mph60%30.48 "HgN/A
1:50 AM36 °FChilly.6 mph52%30.48 "HgN/A
12:50 AM37 °FChilly.6 mph45%30.45 "HgN/A
11:50 PM
Apr 23
39 °FChilly.7 mph39%30.45 "HgN/A
10:50 PM41 °FQuite cool.9 mph36%30.42 "HgN/A
9:50 PM41 °FQuite cool.8 mph33%30.39 "HgN/A
8:50 PM45 °FQuite cool.13 mph27%30.36 "HgN/A
7:50 PM46 °FCool.13 mph23%30.36 "HgN/A
6:50 PM48 °FSunny.15 mph21%30.36 "Hg10 mi
5:50 PM50 °FSunny.14 mph24%30.33 "Hg10 mi
Weather by CustomWeather, © 2014

See weather overview